[[{"header":{"parameterUnit":"m.s-1","parameterCategory":1,"la1":30.2991,"la2":30.254,"lo1":-89.0895,"lo2":-89.0444,"dy":0.0017,"dx":0.0017,"nx":28,"ny":28,"refTime":"2025-09-09T03:00:00:Z","depth":0,"parameterNumber":2,"parameterNumberName":"U-component_of_WINDS"},"data":[0,0,0,0,0,0,0,0,0,0,0,0,0,0,0,0,0,0,0,0,0,0,0,0,0,0,0,0,0,0,0,0,0,0,0,0,0,0,0,0,0,0,0,0,0,0,0,0,0,0,0,0,0,0,0,0,0,0,-0.2111,-0.2111,0,-0.2029,-0.2028,-0.2027,-0.1984,-0.1984,-0.1984,-0.1984,-0.1895,-0.1893,-0.189,0,0,0,0,0,0,0,0,0,0,0,0,0,-0.2228,-0.2226,-0.2111,-0.211,-0.2109,-0.2029,-0.2028,-0.2026,-0.1984,-0.1984,-0.1984,-0.1984,-0.1896,-0.1893,-0.189,0,0,0,0,0,0,0,0,0,0,0,0,0,-0.2164,-0.2225,-0.2112,-0.2079,-0.2075,-0.2029,-0.2028,-0.2026,-0.1984,-0.1984,-0.1984,-0.1984,-0.1897,-0.1893,-0.189,-0.1869,0,0,-0.1879,-0.1878,0,0,0,0,0,0,0,0,-0.2168,-0.216,-0.2085,-0.2081,-0.2077,-0.2017,-0.2036,-0.1973,-0.1984,-0.2019,-0.1984,-0.1984,-0.1935,-0.1929,-0.1913,-0.1865,-0.1861,-0.1879,-0.1877,-0.1875,-0.1874,0,0,0,0,0,0,0,-0.2172,-0.2163,-0.2079,-0.2083,-0.2079,-0.2066,-0.2057,-0.2024,-0.1978,-0.2016,-0.2012,-0.2003,-0.1933,-0.1917,-0.1911,-0.186,-0.1879,-0.1876,-0.1874,-0.1872,-0.1788,-0.1787,0,0,0,0,0,0,-0.2183,-0.2167,-0.2081,-0.2076,-0.2123,-0.2064,-0.2054,-0.2036,-0.1978,-0.197,-0.2003,-0.2002,-0.1923,-0.1915,-0.1907,-0.1878,-0.1875,-0.1872,-0.187,-0.1788,-0.1788,-0.1787,0,0,0,0,0,0,-0.2185,-0.2175,-0.2084,-0.2121,-0.2108,-0.2062,-0.2042,-0.2034,-0.2018,-0.1969,-0.196,-0.1995,-0.1922,-0.1912,-0.1879,-0.1874,-0.187,-0.1867,-0.1788,-0.1788,-0.1787,-0.1819,0,0,0,0,0,0,-0.2189,-0.2177,-0.217,-0.2121,-0.2106,-0.2059,-0.2042,-0.2033,-0.2012,-0.2009,-0.1959,-0.1951,-0.1921,-0.1884,-0.1875,-0.1869,-0.1864,-0.1788,-0.1788,-0.1788,-0.1818,-0.182,-0.1822,0,0,0,0,0,-0.2193,-0.2181,-0.217,-0.2159,-0.2097,-0.2059,-0.205,-0.2018,-0.2012,-0.2004,-0.1972,-0.1952,-0.1876,-0.1881,-0.1871,-0.1863,-0.1788,-0.1788,-0.1788,-0.1818,-0.182,-0.1822,0,0,0,0,0,0,-0.223,-0.2175,-0.2161,-0.2133,-0.2101,-0.2052,-0.204,-0.2022,-0.1989,-0.1988,-0.1947,-0.1936,-0.1906,-0.1881,-0.1888,-0.1839,-0.183,-0.1828,-0.1856,-0.1858,-0.186,-0.1866,-0.1861,0,0,0,0,0,-0.2235,-0.221,-0.2162,-0.2143,-0.2127,-0.2087,-0.2069,-0.2047,-0.2011,-0.1997,-0.1963,-0.1928,-0.1896,-0.1876,-0.1844,-0.1815,-0.1802,-0.1804,-0.1806,-0.1808,-0.1806,-0.1786,-0.1786,-0.1786,-0.1786,-0.1786,0,0,-0.2245,-0.2211,-0.2198,-0.2149,-0.2122,-0.2095,-0.2076,-0.2049,-0.2028,-0.1992,-0.1959,-0.1932,-0.189,-0.1859,-0.1843,-0.1837,-0.1803,-0.1807,-0.1809,-0.1806,-0.1786,-0.1786,-0.1786,-0.1786,-0.1786,-0.1786,0,0,-0.2249,-0.2222,-0.2202,-0.2175,-0.2134,-0.2107,-0.2102,-0.2055,-0.2036,-0.2002,-0.1974,-0.1948,-0.1894,-0.1865,-0.1843,-0.1835,-0.1814,-0.1825,-0.1833,-0.1815,-0.1815,-0.1815,-0.181,-0.1809,-0.1823,-0.1824,-0.1824,0,-0.2266,-0.2226,-0.2194,-0.2168,-0.2146,-0.2114,-0.2092,-0.2067,-0.2017,-0.2002,-0.1996,-0.1927,-0.1896,-0.1856,-0.1854,-0.1838,-0.1829,-0.183,-0.1818,-0.1817,-0.1817,-0.1812,-0.181,-0.1825,-0.1825,-0.1825,-0.1825,0,-0.2248,-0.2221,-0.2209,-0.2163,-0.214,-0.2116,-0.2078,-0.2058,-0.2038,-0.2011,-0.1975,-0.1937,-0.1896,-0.1885,-0.1864,-0.1841,-0.1838,-0.1826,-0.1816,-0.1819,-0.1813,-0.1811,-0.1827,-0.1827,-0.1826,-0.1826,0,0,-0.2274,-0.2209,-0.2205,-0.2183,-0.2135,-0.2112,-0.2086,-0.2047,-0.203,-0.1996,-0.1972,-0.1926,-0.1914,-0.1889,-0.1864,-0.1849,-0.1842,-0.1838,-0.1836,-0.1839,-0.1812,-0.1821,-0.182,-0.1829,-0.1828,-0.1828,-0.1815,0,-0.227,-0.2224,-0.2193,-0.2157,-0.213,-0.2099,-0.2075,-0.2042,-0.2016,-0.1987,-0.1957,-0.1925,-0.1912,-0.1897,-0.188,-0.1847,-0.1836,-0.1847,-0.1804,-0.1803,-0.1815,-0.1817,-0.1827,-0.1817,-0.1813,-0.1813,-0.1812,0,-0.226,-0.2228,-0.2191,-0.2144,-0.2131,-0.2111,-0.2072,-0.2046,-0.2007,-0.1988,-0.196,-0.1935,-0.1904,-0.1897,-0.1852,-0.186,-0.184,-0.1821,-0.182,-0.1814,-0.1807,-0.181,-0.1813,-0.1812,-0.1809,-0.1809,-0.181,0,-0.2281,-0.2228,-0.2198,-0.2181,-0.2126,-0.2112,-0.2088,-0.2049,-0.2027,-0.1992,-0.1977,-0.1938,-0.1917,-0.1887,-0.1851,-0.1849,-0.1809,-0.1799,-0.1791,-0.1792,-0.1783,-0.1784,-0.1782,-0.1772,-0.1772,-0.1772,-0.1772,0,-0.2279,-0.2257,-0.2207,-0.2189,-0.2162,-0.2125,-0.21,-0.2073,-0.2038,-0.2012,-0.1982,-0.1958,-0.1913,-0.1883,-0.1854,-0.182,-0.1811,-0.1794,-0.1786,-0.1796,-0.1798,-0.1782,-0.1781,-0.1772,-0.1772,-0.1772,-0.1772,0,-0.2298,-0.2264,-0.2229,-0.218,-0.2167,-0.2149,-0.2106,-0.2086,-0.2057,-0.2025,-0.2015,-0.197,-0.1933,-0.1894,-0.1844,-0.1825,-0.1791,-0.1782,-0.1805,-0.1801,-0.1794,-0.1795,-0.1781,-0.1776,-0.1771,-0.1771,-0.1771,0,-0.2299,-0.2281,-0.223,-0.2212,-0.2189,-0.2159,-0.2137,-0.2099,-0.2077,-0.203,-0.2014,-0.1975,-0.1942,-0.1884,-0.1845,-0.1806,-0.1794,-0.1792,-0.1788,-0.1798,-0.1792,-0.1794,-0.1791,-0.1793,-0.1794,-0.1794,-0.1794,0,-0.2304,-0.2288,-0.2258,-0.2221,-0.2195,-0.2163,-0.2131,-0.2117,-0.2072,-0.2048,-0.2011,-0.1985,-0.1933,-0.1894,-0.185,-0.1823,-0.18,-0.1796,-0.1791,-0.1801,-0.1814,-0.1805,-0.1808,-0.1796,-0.1796,-0.1796,-0.1796,-0.1795,-0.2313,-0.2295,-0.2257,-0.2223,-0.2195,-0.2165,-0.2143,-0.2112,-0.208,-0.2037,-0.2016,-0.1977,-0.1936,-0.1875,-0.1848,-0.1816,-0.181,-0.1804,-0.1802,-0.1801,-0.1803,-0.182,-0.1808,-0.1808,-0.1808,-0.1808,-0.1808,0,-0.2316,-0.2289,-0.2259,-0.2214,-0.2187,-0.217,-0.2133,-0.2111,-0.2078,-0.2042,-0.201,-0.1966,-0.1927,-0.1885,-0.1844,-0.1826,-0.1814,-0.1816,-0.1817,-0.181,-0.1812,-0.1819,-0.1826,-0.1826,-0.1826,-0.1826,-0.1826,-0.1826,-0.2314,-0.2282,-0.2261,-0.2214,-0.2187,-0.2151,-0.2131,-0.2102,-0.2073,-0.2025,-0.1994,-0.1967,-0.1928,-0.1883,-0.1846,-0.1835,-0.182,-0.1825,-0.181,-0.1812,-0.1811,-0.1809,-0.1816,-0.1822,-0.1822,-0.1811,-0.1811,-0.1811]},{"header":{"parameterUnit":"m.s-1","parameterCategory":1,"la1":30.2991,"la2":30.254,"lo1":-89.0895,"lo2":-89.0444,"dy":0.0017,"dx":0.0017,"nx":28,"ny":28,"refTime":"2025-09-09T03:00:00:Z","depth":0,"parameterNumber":3,"parameterNumberName":"V-component_of_WINDS"},"data":[0,0,0,0,0,0,0,0,0,0,0,0,0,0,0,0,0,0,0,0,0,0,0,0,0,0,0,0,0,0,0,0,0,0,0,0,0,0,0,0,0,0,0,0,0,0,0,0,0,0,0,0,0,0,0,0,0,0,-2.9868,-2.9867,0,-2.9799,-2.9798,-2.9797,-2.9753,-2.9753,-2.9753,-2.9753,-2.9675,-2.9673,-2.9671,0,0,0,0,0,0,0,0,0,0,0,0,0,-2.9955,-2.9954,-2.9868,-2.9867,-2.9866,-2.9799,-2.9798,-2.9797,-2.9753,-2.9753,-2.9753,-2.9752,-2.9675,-2.9673,-2.9671,0,0,0,0,0,0,0,0,0,0,0,0,0,-2.9905,-2.9954,-2.9868,-2.9836,-2.9833,-2.9799,-2.9798,-2.9796,-2.9753,-2.9753,-2.9753,-2.9752,-2.9676,-2.9673,-2.9671,-2.966,0,0,-2.9662,-2.9661,0,0,0,0,0,0,0,0,-2.9908,-2.9902,-2.9842,-2.9838,-2.9835,-2.9784,-2.98,-2.9751,-2.9753,-2.9783,-2.9753,-2.9752,-2.9711,-2.9705,-2.9693,-2.9657,-2.9653,-2.9662,-2.966,-2.9659,-2.9658,0,0,0,0,0,0,0,-2.9911,-2.9904,-2.984,-2.9841,-2.9837,-2.9823,-2.9816,-2.979,-2.975,-2.9781,-2.9777,-2.977,-2.9709,-2.9696,-2.9691,-2.9652,-2.9662,-2.9659,-2.9658,-2.9657,-2.9602,-2.9602,0,0,0,0,0,0,-2.9921,-2.9908,-2.9842,-2.9838,-2.9871,-2.9822,-2.9814,-2.9801,-2.975,-2.9742,-2.977,-2.9768,-2.9701,-2.9694,-2.9688,-2.9671,-2.9659,-2.9656,-2.9655,-2.9602,-2.9602,-2.9603,0,0,0,0,0,0,-2.9923,-2.9915,-2.9845,-2.9872,-2.9862,-2.9821,-2.9807,-2.9799,-2.9786,-2.9742,-2.9734,-2.9765,-2.97,-2.9692,-2.9668,-2.9668,-2.9655,-2.9653,-2.9602,-2.9602,-2.9602,-2.9639,0,0,0,0,0,0,-2.9926,-2.9916,-2.9914,-2.9872,-2.9861,-2.9828,-2.9807,-2.9798,-2.9782,-2.9779,-2.9735,-2.9727,-2.9699,-2.9672,-2.9665,-2.9664,-2.965,-2.9601,-2.9602,-2.9602,-2.9638,-2.9641,-2.9643,0,0,0,0,0,-2.9929,-2.9926,-2.9914,-2.9906,-2.9857,-2.9829,-2.9822,-2.9792,-2.9783,-2.9778,-2.975,-2.9729,-2.967,-2.967,-2.9662,-2.966,-2.9601,-2.9602,-2.9602,-2.9637,-2.964,-2.9643,0,0,0,0,0,0,-2.9966,-2.992,-2.9906,-2.989,-2.9864,-2.9821,-2.9815,-2.9797,-2.9771,-2.9768,-2.9729,-2.972,-2.9699,-2.9677,-2.9678,-2.9646,-2.9633,-2.9632,-2.9662,-2.9665,-2.9668,-2.9673,-2.9648,0,0,0,0,0,-2.9973,-2.9956,-2.9915,-2.9905,-2.9893,-2.9857,-2.9843,-2.9822,-2.9792,-2.978,-2.975,-2.972,-2.9695,-2.9679,-2.9653,-2.9635,-2.9623,-2.9629,-2.9632,-2.9634,-2.9633,-2.962,-2.9622,-2.9604,-2.9604,-2.9604,0,0,-2.9986,-2.9958,-2.9949,-2.9912,-2.9889,-2.987,-2.9847,-2.9828,-2.9813,-2.9777,-2.9753,-2.9729,-2.9693,-2.9672,-2.9661,-2.9653,-2.9636,-2.9635,-2.9638,-2.9635,-2.9621,-2.9623,-2.9624,-2.9604,-2.9604,-2.9604,0,0,-2.9999,-2.9978,-2.9966,-2.9945,-2.9911,-2.9887,-2.9884,-2.9845,-2.9829,-2.9804,-2.9776,-2.9756,-2.9714,-2.9689,-2.9671,-2.9675,-2.9653,-2.9667,-2.9681,-2.9669,-2.9671,-2.9672,-2.9672,-2.9672,-2.9667,-2.9667,-2.9667,0,-3.0019,-2.9992,-2.9962,-2.9945,-2.9928,-2.9897,-2.9883,-2.9863,-2.9822,-2.981,-2.9802,-2.9748,-2.9721,-2.9693,-2.9694,-2.9681,-2.9674,-2.9672,-2.9673,-2.9674,-2.9674,-2.9674,-2.9674,-2.9669,-2.9668,-2.9668,-2.9668,0,-3.0016,-2.9998,-2.9992,-2.9956,-2.9938,-2.9923,-2.9889,-2.9875,-2.9855,-2.9831,-2.9806,-2.9773,-2.974,-2.9731,-2.9711,-2.97,-2.9696,-2.9681,-2.9666,-2.9679,-2.9677,-2.9677,-2.9671,-2.9671,-2.967,-2.967,0,0,-3.0051,-2.9999,-2.9997,-2.998,-2.9941,-2.9925,-2.9907,-2.9877,-2.9864,-2.9837,-2.982,-2.9784,-2.9771,-2.975,-2.9727,-2.9716,-2.972,-2.9703,-2.9701,-2.9706,-2.9703,-2.9713,-2.9714,-2.9706,-2.9706,-2.9706,-2.9705,0,-3.0058,-3.0027,-3.0,-2.9979,-2.996,-2.993,-2.9914,-2.9887,-2.9864,-2.9843,-2.9816,-2.9791,-2.9776,-2.9763,-2.9752,-2.9722,-2.9718,-2.9722,-2.9687,-2.9686,-2.9696,-2.9713,-2.9724,-2.9726,-2.9705,-2.9705,-2.9705,0,-3.0062,-3.0038,-3.0015,-2.9977,-2.9968,-2.9955,-2.9925,-2.9906,-2.9873,-2.9857,-2.9835,-2.9811,-2.9788,-2.9777,-2.9744,-2.9747,-2.973,-2.9714,-2.9713,-2.9707,-2.9696,-2.9707,-2.9726,-2.9726,-2.9704,-2.9704,-2.9704,0,-3.0087,-3.0049,-3.0031,-3.0017,-2.9973,-2.9964,-2.9945,-2.9913,-2.9896,-2.9868,-2.9856,-2.9826,-2.9809,-2.9784,-2.9752,-2.9747,-2.9721,-2.9708,-2.9705,-2.9706,-2.97,-2.9701,-2.9715,-2.9692,-2.9692,-2.9692,-2.9692,0,-3.0097,-3.0084,-3.0042,-3.003,-3.0014,-2.9982,-2.9966,-2.9943,-2.9915,-2.9897,-2.9868,-2.9851,-2.9809,-2.9786,-2.976,-2.9736,-2.9729,-2.9713,-2.9706,-2.9715,-2.9717,-2.9703,-2.9702,-2.9692,-2.9692,-2.9692,-2.9692,0,-3.0123,-3.0094,-3.0071,-3.0032,-3.0022,-3.0012,-2.9977,-2.9963,-2.9939,-2.9916,-2.9908,-2.9869,-2.9841,-2.9806,-2.9766,-2.9748,-2.9726,-2.9716,-2.9737,-2.9733,-2.9732,-2.9732,-2.9737,-2.9736,-2.9715,-2.9716,-2.9716,0,-3.013,-3.012,-3.008,-3.0067,-3.0049,-3.0028,-3.0011,-2.9979,-2.9962,-2.9925,-2.9915,-2.9885,-2.9859,-2.9814,-2.978,-2.9749,-2.9737,-2.9741,-2.9732,-2.9741,-2.9736,-2.9736,-2.9734,-2.9743,-2.9744,-2.9744,-2.9744,0,-3.0146,-3.0133,-3.0111,-3.0084,-3.0065,-3.0042,-3.0017,-3.0007,-2.9969,-2.9951,-2.9923,-2.9904,-2.9863,-2.9833,-2.9797,-2.9774,-2.9752,-2.9748,-2.9745,-2.9754,-2.9766,-2.9758,-2.9743,-2.9747,-2.9747,-2.9747,-2.9747,-2.9747,-3.0161,-3.0151,-3.0121,-3.0097,-3.0076,-3.0053,-3.0039,-3.0013,-2.999,-2.9957,-2.9938,-2.991,-2.9876,-2.9827,-2.9805,-2.978,-2.9773,-2.9769,-2.9768,-2.9768,-2.977,-2.9771,-2.9774,-2.9774,-2.9774,-2.9773,-2.9773,0,-3.0175,-3.0155,-3.0134,-3.0101,-3.0082,-3.0066,-3.0037,-3.0021,-2.9998,-2.997,-2.9946,-2.9912,-2.9883,-2.9847,-2.9815,-2.9802,-2.9791,-2.9794,-2.9794,-2.9789,-2.9779,-2.9784,-2.9804,-2.9804,-2.9804,-2.9804,-2.9804,-2.9804,-3.0179,-3.016,-3.0143,-3.0111,-3.009,-3.0065,-3.005,-3.0028,-3.0005,-2.9971,-2.9947,-2.9925,-2.9893,-2.9858,-2.9829,-2.9819,-2.9807,-2.9814,-2.9801,-2.9792,-2.9789,-2.9787,-2.9791,-2.9812,-2.9812,-2.9812,-2.9812,-2.9812]}]]